User: anonymous   Login
Location: Unspecified
(0.0000°N, 0.0000°E)
Time: 00:23:33
(UTC+00:00)
Language:

USA 32 - Orbit

View from above orbital plane
View from above orbital plane
View from above satellite
View from above satellite

Ground track
Ground track

The orbit data is extracted from the following two-line orbital elements,

1 19460U 88078A   17074.75934815 0.00000000  00000-0  00000-0 0    05
2 19460  84.9863 276.2329 0006000  89.9744 270.0255 14.33407425    02
Epoch (UTC): 15 March 2017 18:13:27
Eccentricity: 0.0006000
inclination: 84.9863°
perigee height: 776 km
apogee height: 784 km
right ascension of ascending node: 276.2329°
argument of perigee: 89.9744°
revolutions per day: 14.33407425
mean anomaly at epoch: 270.0255°
orbit number at epoch: 0

The dashed part of the orbit path shows where the satellite is in the earth's shadow,  

DLR